Flag for Norway Weather past 2 weeks in Egersund, Norway

Now
52 °F

Cool.


Feels Like: 52 °F
Forecast: 55 / 66 °F
Wind: 2 mph from North

Location: Ualand-Bjuland

Current Time: Aug 5, 2015 at 4:38:33 AM

Latest Report: Aug 5, 2015 at 4:00 AM


Visibility: N/A

Pressure: 29.89 "Hg

Humidity: 97%

Dew point: 51 °F

Location of EgersundLocation

Historic Weather in Egersund — Graph

°F

Egersund temperature yesterday

Maximum temperature yesterday: 63 °F (at 10:00 AM)
Minimum temperature yesterday: 55 °F (at 12:00 AM)
Average temperature yesterday: 60 °F

Past Weeks' High & Low Weather Summary

 TemperatureHumidityPressure
High69 °F (Aug 3, 4:00 PM)99% (Jul 30, 4:00 AM)30.14 "Hg (Jul 30, 4:00 AM)
Low42 °F (Jul 25, 3:00 AM)45% (Aug 3, 4:00 PM)29.32 "Hg (Jul 29, 1:00 PM)
Average56 °F79%29.75 "Hg
* Reported Jul 21 3:00 AM — Aug 5 3:00 AM, Egersund, Weather by CustomWeather, © 2015

Note: Actual official high and low records may vary slightly from our data, if they occured in-between our weather recording intervals... More about our weather records

Advertising

Egersund weather history for previous 24 hours

 ConditionsComfort  
Time TempWeatherWind HumidityBarometerVisibility
3:00 AM
Wed, Aug 5
53 °FCool.1 mph97%29.89 "HgN/A
2:00 AM54 °FCool.1 mph97%29.88 "HgN/A
1:00 AM56 °FCool.1 mph97%29.87 "HgN/A
10:00 PM
Tue, Aug 4
59 °FCool.1 mph95%29.85 "HgN/A
9:00 PM60 °FCool.3 mph97%29.84 "HgN/A
8:00 PM61 °FRain showers. Low clouds.3 mph96%29.83 "Hg2 mi
7:00 PM62 °FCool.3 mph92%29.82 "HgN/A
6:00 PM62 °FCool.7 mph92%29.83 "HgN/A
5:00 PM61 °FCool.3 mph95%29.83 "HgN/A
4:00 PM60 °FCool.1 mph98%29.85 "HgN/A
3:00 PM59 °FCool.1 mph97%29.85 "HgN/A
2:00 PM59 °FRain showers. Low clouds.1 mph97%29.84 "Hg2 mi
1:00 PM59 °FCool.1 mph96%29.85 "HgN/A
12:00 PM60 °FCool.2 mph91%29.88 "HgN/A
11:00 AM62 °FCool.5 mph84%29.89 "HgN/A
10:00 AM63 °FMild.3 mph76%29.88 "HgN/A
9:00 AM62 °FMild.2 mph75%29.88 "HgN/A
8:00 AM62 °FOvercast.2 mph75%29.87 "Hg31 mi
7:00 AM61 °FCool.1 mph74%29.87 "HgN/A
5:00 AM62 °FCool.3 mph67%29.89 "HgN/A
4:00 AM62 °FMild.5 mph62%29.89 "HgN/A
Weather by CustomWeather, © 2015

See weather overviewHow to use our weather pages